Location: Prairie State College
(41.5244°N, 87.6382°W)
Time: 00:15:34
(UTC-05:00)

ARGOS Delta rocket - Visible Passes

Search period start: 25 July 2014 00:00
Search period end: 04 August 2014 00:00
Orbit: 636 x 842 km, 96.5° (Epoch: 23 July)

Date Brightness Start Highest point End Pass type
(mag) Time Alt. Az. Time Alt. Az. Time Alt. Az.
25 Jul 4.0 02:35:15 53° ESE 02:35:51 59° ENE 02:40:11 10° N visible
25 Jul 5.6 04:14:55 12° W 04:14:58 12° W 04:16:36 10° WNW visible
26 Jul 5.6 01:50:27 19° E 01:51:38 21° ENE 01:54:56 10° NNE visible
26 Jul 4.4 03:30:07 34° W 03:30:08 34° W 03:34:09 10° NNW visible
27 Jul 3.5 02:45:19 75° ESE 02:45:34 79° ENE 02:50:00 10° N visible
28 Jul 5.3 02:00:31 26° E 02:01:17 27° ENE 02:05:01 10° NNE visible
28 Jul 4.8 03:40:10 26° W 03:40:10 26° W 03:43:39 10° NW visible
29 Jul 6.4 01:16:54 10° ENE 01:17:18 10° ENE 01:17:42 10° ENE visible
29 Jul 3.5 02:55:22 78° W 02:55:22 78° W 02:59:45 10° NNW visible
30 Jul 4.8 02:10:33 35° E 02:10:57 35° ENE 02:15:00 10° N visible
30 Jul 5.2 03:50:13 20° W 03:50:13 20° W 03:53:02 10° NW visible
31 Jul 6.2 01:25:45 12° E 01:26:54 13° ENE 01:29:03 10° NE visible
31 Jul 3.8 03:05:24 56° WNW 03:05:24 56° WNW 03:09:28 10° NNW visible
01 Aug 4.4 02:20:36 47° ENE 02:20:38 47° ENE 02:24:56 10° N visible
01 Aug 5.5 04:00:15 15° W 04:00:15 15° W 04:02:13 10° NW visible
02 Aug 5.9 01:35:47 17° ENE 01:36:30 18° ENE 01:39:28 10° NNE visible
02 Aug 4.3 03:15:26 40° WNW 03:15:26 40° WNW 03:19:08 10° NNW visible
03 Aug 4.0 02:30:38 61° NE 02:30:38 61° NE 02:34:49 10° N visible
03 Aug 5.8 04:10:17 11° WNW 04:10:17 11° WNW 04:10:56 10° WNW visible
